Simultaneous Nadir Overpasses (SNOs) Predictions

Prediction of SNOs between AQUA and GOES-15 Satellite Orbit:

Table of predicted SNOs for the next 14.0 days since TLE Epoch: 1/13/2012
Index Date Time (AQUA) AQUA Lat,Lon GOES-15 Lat,Lon Distance(km) Time Diff (sec)
1 01/14/2012 22:22:33 0.63,-131.95 0.03,-134.64 306.89 80
2 01/15/2012 10:43:48 0.49,-137.10 -0.04,-134.66 277.36 80
3 01/17/2012 10:31:36 -0.14,-134.14 -0.03,-134.62 54.93 80
4 01/19/2012 10:19:23 -0.72,-131.16 -0.02,-134.57 386.71 80
5 01/19/2012 22:40:47 -0.38,-136.35 0.02,-134.53 207.63 80
6 01/21/2012 22:28:34 0.22,-133.38 0.01,-134.48 123.70 80
7 01/22/2012 10:49:50 0.83,-138.55 -0.01,-134.48 461.70 80
8 01/23/2012 22:16:21 0.84,-130.42 0.00,-134.42 454.86 80
9 01/24/2012 10:37:36 0.27,-135.57 -0.01,-134.43 130.49 80
10 01/26/2012 10:25:23 -0.37,-132.60 -0.01,-134.37 200.48 80
11 01/26/2012 22:46:47 -0.70,-137.80 0.02,-134.34 393.15 80




NCC Satellite Simultaneous Nadir Overpasses (SNOs) Prediction Service
